Tiempo cada hora Allate

Hoy, 30 Julio, Viernes

Tiempo Temperatura Precipitaciones Viento Presión Humedad
00:00 +13°C° 0 mm 1 mps 638 mmHg 74%
01:00 +13°C° 0 mm 1 mps 638 mmHg 75%
02:00 +13°C° 0 mm 1 mps 638 mmHg 75%
03:00 +13°C° 0 mm 1 mps 638 mmHg 76%
04:00 +13°C° 0 mm 1 mps 638 mmHg 75%
05:00 +14°C° 0 mm 1 mps 638 mmHg 74%
06:00 +15°C° 0 mm 1 mps 638 mmHg 72%
07:00 +16°C° 0 mm 1 mps 639 mmHg 65%
08:00 +18°C° 0 mm 2 mps 639 mmHg 59%
09:00 +20°C° 0 mm 2 mps 639 mmHg 52%
10:00 +21°C° 0 mm 2 mps 639 mmHg 50%
11:00 +21°C° 0 mm 2 mps 640 mmHg 47%
12:00 +22°C° 0 mm 3 mps 640 mmHg 45%
13:00 +22°C° 0 mm 3 mps 639 mmHg 45%
14:00 +24°C° 0 mm 2 mps 639 mmHg 45%
15:00 +24°C° 0 mm 2 mps 639 mmHg 45%
16:00 +23°C° 0 mm 2 mps 639 mmHg 49%
17:00 +21°C° 0 mm 2 mps 639 mmHg 53%
18:00 +21°C° 0 mm 1 mps 638 mmHg 57%
19:00 +19°C° 0 mm 1 mps 638 mmHg 60%
20:00 +17°C° 0 mm 2 mps 638 mmHg 63%
21:00 +15°C° 0 mm 2 mps 638 mmHg 66%
22:00 +15°C° 0 mm 2 mps 638 mmHg 68%
23:00 +15°C° 0 mm 2 mps 637 mmHg 70%

Mañana, 31 Julio, Sábado

Tiempo Temperatura Precipitaciones Viento Presión Humedad
00:00 +15°C° 0 mm 2 mps 637 mmHg 72%
01:00 +14°C° 0 mm 2 mps 637 mmHg 73%
02:00 +14°C° 0 mm 2 mps 637 mmHg 74%
03:00 +14°C° 0 mm 2 mps 637 mmHg 75%
04:00 +15°C° 0 mm 2 mps 637 mmHg 74%
05:00 +15°C° 0 mm 1 mps 637 mmHg 74%
06:00 +16°C° 0 mm 1 mps 638 mmHg 73%
07:00 +19°C° 0 mm 1 mps 638 mmHg 66%
08:00 +21°C° 0 mm 1 mps 638 mmHg 59%
09:00 +22°C° 0 mm 1 mps 639 mmHg 52%
10:00 +23°C° 0 mm 2 mps 639 mmHg 50%
11:00 +24°C° 0 mm 2 mps 639 mmHg 47%
12:00 +25°C° 0 mm 3 mps 639 mmHg 45%
13:00 +25°C° 0.2 mm 3 mps 639 mmHg 46%
14:00 +25°C° 0.2 mm 2 mps 639 mmHg 47%
15:00 +25°C° 0.2 mm 2 mps 639 mmHg 49%
16:00 +24°C° 0.1 mm 2 mps 639 mmHg 53%
17:00 +23°C° 0.1 mm 2 mps 639 mmHg 57%
18:00 +22°C° 0.1 mm 1 mps 639 mmHg 62%
19:00 +21°C° 0 mm 1 mps 639 mmHg 65%
20:00 +19°C° 0 mm 1 mps 639 mmHg 68%
21:00 +17°C° 0 mm 2 mps 638 mmHg 71%
22:00 +16°C° 0 mm 2 mps 638 mmHg 72%
23:00 +16°C° 0 mm 2 mps 638 mmHg 73%

Pasado mañana, 1 Agosto, Domingo

Tiempo Temperatura Precipitaciones Viento Presión Humedad
00:00 +16°C° 0 mm 2 mps 638 mmHg 74%
01:00 +15°C° 0 mm 2 mps 638 mmHg 74%
02:00 +15°C° 0 mm 2 mps 638 mmHg 75%
03:00 +15°C° 0 mm 2 mps 638 mmHg 75%
04:00 +16°C° 0 mm 2 mps 638 mmHg 74%
05:00 +16°C° 0 mm 2 mps 639 mmHg 73%
06:00 +18°C° 0 mm 1 mps 639 mmHg 71%
07:00 +20°C° 0 mm 1 mps 639 mmHg 65%
08:00 +21°C° 0 mm 2 mps 640 mmHg 58%
09:00 +24°C° 0 mm 2 mps 640 mmHg 51%
10:00 +24°C° 0.2 mm 2 mps 640 mmHg 49%
11:00 +25°C° 0.2 mm 2 mps 640 mmHg 48%
12:00 +26°C° 0.2 mm 3 mps 640 mmHg 46%
13:00 +26°C° 0.5 mm 3 mps 640 mmHg 49%
14:00 +25°C° 0.5 mm 3 mps 640 mmHg 52%
15:00 +24°C° 0.5 mm 2 mps 639 mmHg 55%
16:00 +24°C° 0.4 mm 2 mps 639 mmHg 58%
17:00 +23°C° 0.4 mm 2 mps 639 mmHg 62%
18:00 +22°C° 0.4 mm 1 mps 639 mmHg 66%
19:00 +21°C° 0.4 mm 1 mps 639 mmHg 69%
20:00 +19°C° 0.4 mm 1 mps 639 mmHg 73%
21:00 +17°C° 0.4 mm 2 mps 639 mmHg 76%
22:00 +17°C° 0.1 mm 2 mps 639 mmHg 76%
23:00 +17°C° 0.1 mm 2 mps 639 mmHg 77%

2 Agosto, Lunes

Tiempo Temperatura Precipitaciones Viento Presión Humedad
00:00 +16°C° 0.1 mm 2 mps 638 mmHg 77%
01:00 +16°C° 0 mm 2 mps 638 mmHg 76%
02:00 +16°C° 0 mm 2 mps 638 mmHg 76%
03:00 +15°C° 0 mm 2 mps 638 mmHg 75%
04:00 +16°C° 0 mm 2 mps 638 mmHg 74%
05:00 +16°C° 0 mm 2 mps 639 mmHg 72%
06:00 +17°C° 0 mm 2 mps 639 mmHg 71%
07:00 +19°C° 0 mm 2 mps 639 mmHg 62%
08:00 +21°C° 0 mm 2 mps 640 mmHg 53%
09:00 +24°C° 0 mm 2 mps 640 mmHg 45%
10:00 +25°C° 0.1 mm 3 mps 641 mmHg 42%
11:00 +26°C° 0.1 mm 3 mps 641 mmHg 39%
12:00 +27°C° 0.1 mm 4 mps 641 mmHg 36%
13:00 +26°C° 0.3 mm 4 mps 640 mmHg 39%
14:00 +26°C° 0.3 mm 4 mps 640 mmHg 41%
15:00 +25°C° 0.3 mm 4 mps 640 mmHg 44%
16:00 +24°C° 0 mm 3 mps 640 mmHg 47%
17:00 +24°C° 0 mm 3 mps 640 mmHg 50%
18:00 +23°C° 0 mm 2 mps 640 mmHg 54%
19:00 +20°C° 0 mm 2 mps 640 mmHg 56%
20:00 +19°C° 0 mm 2 mps 639 mmHg 59%
21:00 +17°C° 0 mm 2 mps 639 mmHg 62%
22:00 +17°C° 0 mm 2 mps 639 mmHg 64%
23:00 +17°C° 0 mm 2 mps 639 mmHg 65%

3 Agosto, Martes

Tiempo Temperatura Precipitaciones Viento Presión Humedad
00:00 +17°C° 0 mm 2 mps 639 mmHg 67%
01:00 +16°C° 0 mm 2 mps 639 mmHg 66%
02:00 +16°C° 0 mm 2 mps 638 mmHg 65%
03:00 +16°C° 0 mm 2 mps 638 mmHg 65%
04:00 +16°C° 0 mm 2 mps 639 mmHg 64%
05:00 +17°C° 0 mm 2 mps 639 mmHg 63%
06:00 +17°C° 0 mm 2 mps 639 mmHg 62%
07:00 +20°C° 0 mm 1 mps 640 mmHg 55%
08:00 +23°C° 0 mm 1 mps 640 mmHg 49%
09:00 +25°C° 0 mm 1 mps 641 mmHg 42%
10:00 +26°C° 0 mm 1 mps 641 mmHg 40%
11:00 +27°C° 0 mm 1 mps 641 mmHg 38%
12:00 +28°C° 0 mm 2 mps 641 mmHg 36%
13:00 +27°C° 0.1 mm 2 mps 641 mmHg 40%
14:00 +26°C° 0.1 mm 2 mps 640 mmHg 43%
15:00 +25°C° 0.1 mm 2 mps 640 mmHg 46%
16:00 +24°C° 0.2 mm 2 mps 640 mmHg 50%
17:00 +24°C° 0.2 mm 1 mps 640 mmHg 53%
18:00 +23°C° 0.2 mm 1 mps 640 mmHg 57%
19:00 +22°C° 0.3 mm 1 mps 640 mmHg 60%
20:00 +19°C° 0.3 mm 2 mps 640 mmHg 64%
21:00 +18°C° 0.3 mm 2 mps 640 mmHg 67%
22:00 +17°C° 0 mm 2 mps 640 mmHg 68%
23:00 +17°C° 0 mm 2 mps 640 mmHg 69%

4 Agosto, Miércoles

Tiempo Temperatura Precipitaciones Viento Presión Humedad
00:00 +17°C° 0 mm 2 mps 640 mmHg 70%
01:00 +17°C° 0 mm 2 mps 640 mmHg 70%
02:00 +17°C° 0 mm 2 mps 640 mmHg 69%
03:00 +17°C° 0 mm 2 mps 640 mmHg 69%
04:00 +17°C° 0 mm 2 mps 640 mmHg 68%
05:00 +18°C° 0 mm 2 mps 641 mmHg 68%
06:00 +18°C° 0 mm 2 mps 641 mmHg 67%
07:00 +20°C° 0 mm 2 mps 642 mmHg 60%
08:00 +24°C° 0 mm 1 mps 642 mmHg 52%
09:00 +26°C° 0 mm 1 mps 643 mmHg 45%
10:00 +27°C° 0.1 mm 1 mps 643 mmHg 43%
11:00 +28°C° 0.1 mm 2 mps 643 mmHg 41%
12:00 +28°C° 0.1 mm 2 mps 643 mmHg 39%
13:00 +27°C° 0.4 mm 2 mps 643 mmHg 47%
14:00 +25°C° 0.4 mm 2 mps 642 mmHg 55%
15:00 +24°C° 0.4 mm 2 mps 642 mmHg 63%
16:00 +21°C° 2 mm 3 mps 642 mmHg 71%
17:00 +20°C° 2 mm 3 mps 642 mmHg 79%
18:00 +18°C° 2 mm 3 mps 642 mmHg 87%
19:00 +17°C° 0.7 mm 3 mps 642 mmHg 87%
20:00 +17°C° 0.7 mm 3 mps 642 mmHg 87%
21:00 +16°C° 0.7 mm 3 mps 642 mmHg 86%
22:00 +16°C° 0 mm 3 mps 642 mmHg 83%
23:00 +16°C° 0 mm 2 mps 642 mmHg 80%
Mostrar más

Necesitamos Su Consentimiento

Meteoprog y nuestros Proveedores de Servicios pueden almacenar y acceder a sus datos personales como cookies, identificadores de dispositivo u otras tecnologías similares de su dispositivo y procesar dichos datos para personalizar contenido y anuncios, además de ofrecer funciones de redes sociales y analizar el tráfico.

  • Almacenar y/o acceder a información en su dispositivo

    Se puede almacenar o acceder a cookies, identificadores de dispositivo u otra información de su dispositivo para los fines anteriormente indicados.

  • Anuncios y contenido personalizados, medición de anuncios y contenido, percepciones del público, y desarrollo de productos

    Los anuncios y el contenido pueden personalizarse en base a su perfil. Se pueden añadir más datos para personalizar mejor los anuncios y contenidos. Se puede medir el rendimiento de los anuncios y contenidos. Se puede obtener la percepción sobre el público que ha visto los anuncios y contenidos. Dichos datos pueden usarse para desarrollar o mejorar la experiencia del usuario, sistemas y software.

Al hacer clic en ‘Estoy De Acuerdo’ usted permitirá el uso de las cookies, identificadores de dispositivo, balizas web u otras tecnologías similares indicadas. Su configuración puede cambiarse desde el navegador de su dispositivo.

Para ciertos fines, los intereses legítimos pueden ser considerados por encima del consentimiento. Puede leer más sobre ello en nuestra Política de Privacidad y Cookies.